Location: D�rnast
(49.6426°N, 11.9755°E)
Time: 08:36:03
(UTC+00:00)

N. Korean satellite - Pass Details

Date: 10 December 2021
Orbit: 446 x 491 km, 97.3° (Epoch: 18 January)

Event Time Altitude Azimuth Distance (km) Brightness Sun altitude
Rises 15:37:45 0° 171° (S) 2,505 10.5 -4.3°
Reaches altitude 10° 15:39:49 10° 174° (S) 1,625 9.6 -4.6°
Maximum altitude 15:43:17 68° 258° (WSW) 504 6.9 -5.1°
Drops below altitude 10° 15:46:44 10° 342° (NNW) 1,613 9.1 -5.6°
Sets 15:48:47 0° 345° (NNW) 2,485 10.0 -5.9°
